{"data":{"norad_id":66479,"epoch":"2026-05-24T22:44:51.306720Z","epoch_age_seconds":75674,"freshness":"FRESH","line1":"1 66479U 25262Z   26144.94781605  .00017910  00000+0  65870-3 0  9992","line2":"2 66479  43.0033 225.1076 0001686 271.9901  88.0757 15.27583378 30579","mean_motion":15.27583378,"eccentricity":0.0001686,"inclination_deg":43.0033,"raan_deg":225.1076,"arg_perigee_deg":271.9901,"mean_anomaly_deg":88.0757,"bstar":0.0006587,"rev_number":3057,"period_min":94.266540258204,"perigee_km":481.88218684065,"apogee_km":484.19577538148,"semimajor_km":6861.1759811111,"source":"CELESTRAK","updated_at":"2026-05-25T13:38:21.240048Z"}}